Regional Weather Roundup
Issued by NWS

Home | Current Version | Previous Version | Graphics & Text | Print | Product List | Glossary On
Versions: 1 2 3 4 5 6 7 8 9 10 11 12 13 14 15 16 17 18 19 20 21 22 23 24 25 26 27 28 29 30 31 32 33 34 35 36 37 38 39 40 41 42 43 44 45 46 47 48 49 50
000
ASUS43 KIND 270509
RWRIN

WEATHER ROUNDUP FOR INDIANA
NATIONAL WEATHER SERVICE INDIANAPOLIS IN
100 AM EDT TUE SEP 27 2016

NOTE: "FAIR" INDICATES FEW OR NO CLOUDS BELOW 12,000 FEET WITH NO
SIGNIFICANT WEATHER AND/OR OBSTRUCTIONS TO VISIBILITY.

* - STATION DOES NOT REPORT WEATHER SUCH AS PRECIPITATION OR FOG.

+ - STATION NOT QUALITY CONTROLLED BY THE NATIONAL WEATHER SERVICE.
    USE DATA WITH CAUTION...ESPECIALLY DEWPOINT AND RELATIVE
    HUMIDITY OBSERVATIONS.

INZ001>003-010>013-019-020-270600-
NORTHWEST INDIANA

CITY           SKY/WX    TMP DP  RH WIND       PRES   REMARKS
GARY /AIRPORT/ CLEAR     58  38  48 SW5       29.94S
KNOX *+        CLEAR     50  21  32 SW6       29.95F
LA PORTE +     CLEAR     52  41  64 SW8       29.94F
MICHIGAN CITY+ CLEAR     52  37  58 MISG      29.93F
MONTICELLO +   CLEAR     51  37  60 S8        29.98F
RENSSELAER +   CLEAR     50  43  76 SW5       29.97F
VALPARAISO     CLEAR     51  39  63 SW6       29.94F

$$

LMZ046-743>745-270600-
SOUTHERN LAKE MICHIGAN

STATION/POSITION TIME  TEMP    WIND        PRES    WAVE
                       AIR SEA DIR/SP/G            HT
                 (UTC) (F)     (DEG/KT/KT) (MB)    (FT)
BURNS HARBOR     0400   62     230/ 11/ 20 1014.2F
MICHIGAN CITY    0400   60     190/ 12/ 13   N/A
5NW MICH CITY    0500   65 67  250/ 17/ 23   N/A     4

$$

INZ004-005-014>016-021>024-270600-
NORTH CENTRAL INDIANA

CITY           SKY/WX    TMP DP  RH WIND       PRES   REMARKS
GOSHEN         CLEAR     50  39  66 SW9       29.93F
LOGANSPORT +   CLEAR     50  41  71 SW9       29.99S
PERU/GRISSOM   CLEAR     49  40  71 SW12      29.97F
ROCHESTER +    CLEAR     54  41  62 SW5       29.96F
SOUTH BEND     CLEAR     51  40  65 SW8       29.93F
WARSAW +       CLEAR     52  30  43 SW3       29.94F

$$

INZ006>009-017-018-025>027-270600-
NORTHEAST INDIANA

CITY           SKY/WX    TMP DP  RH WIND       PRES   REMARKS
ANGOLA *+        N/A     52  39  62 CALM      29.93F
AUBURN +       PTCLDY    54  37  54 SW6       29.95F
FORT WAYNE     CLEAR     49  41  74 SW7       29.97F
HUNTINGTON +   CLEAR     54  39  58 SW5       29.97F
KENDALLVILLE + CLEAR     52  39  62 SW8       29.94F

$$

INZ028-029-035-036-043>045-051>053-270600-
WEST CENTRAL INDIANA

CITY           SKY/WX    TMP DP  RH WIND       PRES   REMARKS
CRAWFORDSVL +  CLEAR     49  42  75 SW5       30.03S
GREENCASTLE +  CLEAR     48  48 100 CALM      30.04F
LAFAYETTE      CLEAR     48  44  86 W3        30.00F
TERRE HAUTE    CLEAR     52  44  74 SW5       30.05S

$$

INZ030>032-037>040-046>048-054>057-064-065-270600-
CENTRAL INDIANA

CITY           SKY/WX    TMP DP  RH WIND       PRES   REMARKS
FRANKFORT +    CLEAR     53  42  66 W5        30.03S
GREENWOOD *+   CLEAR     55  45  67 SW3       30.04F
INDIANAPOLIS   CLEAR     52  44  74 SW8       30.03S
-EAGLE CREEK   CLEAR     57  41  55 CALM      30.02F
MARION +       CLEAR     52  40  64 SW6       30.01S
MT COMFORT *+  PTCLDY    52  45  76 SW5       30.03F
SHELBYVILLE    CLEAR     52  47  83 SW6       30.03F
ZIONSVILLE +   CLEAR     51  41  69 W6        30.03F

$$

INZ033-034-041-042-049-050-058-059-270600-
EAST CENTRAL INDIANA

CITY           SKY/WX    TMP DP  RH WIND       PRES   REMARKS
MUNCIE         CLEAR     57  42  57 SW7       30.01F

$$

INZ060-061-067>069-081>083-085>088-270600-
SOUTHWEST INDIANA

CITY           SKY/WX    TMP DP  RH WIND       PRES   REMARKS
EVANSVILLE     CLEAR     54  49  83 W6        30.09S
HUNTINGBURG *+   N/A     52  46  82 S3        30.08F
WASHINGTON +   CLEAR     54  48  81 MISG      30.06S

$$

INZ062-063-066-070>080-084-089>092-270600-
SOUTH CENTRAL AND SOUTHEAST INDIANA

CITY           SKY/WX    TMP DP  RH WIND       PRES   REMARKS
BLOOMINGTON    CLEAR     53  44  71 W3        30.05F
MADISON *+     CLEAR     50  48  93 CALM      30.08S
NORTH VERNON + CLEAR    N/A N/A N/A SW6       30.06F

$$




USA.gov is the U.S. government's official web portal to all federal, state and local government web resources and services.